Location: Ehrke Reservoir
(40.0279°N, 99.6641°W)
Time: 09:49:04
(UTC+00:00)

Meteor 2-10 Rocket - Pass Details

Date: 20 January 2020
Orbit: 733 x 885 km, 81.2° (Epoch: 16 February)

Event Time Altitude Azimuth Distance (km) Brightness Sun altitude
Rises 00:53:01 0° 359° (N) 3,345 6.7 -13.5°
Reaches altitude 10° 00:55:43 10° 9° (N) 2,383 5.8 -14.0°
Maximum altitude 01:00:30 33° 73° (ENE) 1,300 4.1 -14.9°
Drops below altitude 10° 01:05:06 10° 136° (SE) 2,286 5.7 -15.8°
Sets 01:07:37 0° 147° (SSE) 3,188 6.5 -16.3°
